sat.trackr.live / text

‹ back to catalog

STARLINK-32750

NORAD 62572 · 2025-006U

PAYLOAD ACTIVE UNKNOWN

§ Identity

Operator
Country
US
Launch date
2025-01-10
Launch site
AFETR
Launch vehicle
Mass (kg)
RCS (m²)

Purposes: comms

External: N2YO · Heavens-Above · Gunter

§ Orbital elements

Epoch: 2026-09-21T16:41:06.202752Z

Period
94.27 min
Inclination
42.9948°
Eccentricity
0.0000899
Mean motion
15.27580652 rev/d
Perigee alt
482.4 km
Apogee alt
483.7 km
Semi-major
6,861.2 km
B*
4.0356e-4
RAAN
265.2440°
Arg perigee
297.9568°
Mean anomaly
62.1192°
Rev number
9,484

§ Raw data

STARLINK-327501 62572U 25006U   26264.69521068  .00010860  00000+0  40356-3 0  99972 62572  42.9948 265.2440 0000899 297.9568  62.1192 15.27580652 94842

JSON: /api/v1/satellites/62572 · /tle

For live sub-satellite position, see the globe view (requires WebGL).

§ Visibility from observer

Set your observer location to see the next 7 days of passes ≥ 10°. The values pass through the URL so the page stays shareable.

No JS? Fill the form by hand. The geolocation button needs JavaScript.